Time,TemperatureF,DewpointF,PressureIn,WindDirection,WindDirectionDegrees,WindSpeedMPH,WindSpeedGustMPH,Humidity,HourlyPrecipIn,Conditions,Clouds,dailyrainin,SoftwareType,DateUTC
2013-06-08 00:01:00,58.9,50.3,30.12,NE,45,0.0,0.0,73,0.00,,,0.00,WSDL version 427,2013-06-08 05:01:00,
2013-06-08 00:06:00,58.6,50.1,30.12,NE,45,0.0,0.0,74,0.00,,,0.00,WSDL version 427,2013-06-08 05:06:00,
2013-06-08 00:11:00,58.4,50.1,30.12,NE,45,0.0,0.0,74,0.00,,,0.00,WSDL version 427,2013-06-08 05:11:00,
2013-06-08 00:16:00,58.2,50.0,30.12,NE,45,0.0,0.0,74,0.00,,,0.00,WSDL version 427,2013-06-08 05:16:00,
2013-06-08 00:21:00,58.1,49.8,30.12,NE,45,0.0,0.0,74,0.00,,,0.00,WSDL version 427,2013-06-08 05:21:00,
2013-06-08 00:26:00,57.9,49.7,30.12,NE,45,0.0,0.0,74,0.00,,,0.00,WSDL version 427,2013-06-08 05:26:00,
2013-06-08 00:31:00,57.8,49.7,30.12,NE,45,0.0,0.0,75,0.00,,,0.00,WSDL version 427,2013-06-08 05:31:00,
2013-06-08 00:36:00,57.7,49.8,30.12,NE,45,0.0,0.0,75,0.00,,,0.00,WSDL version 427,2013-06-08 05:36:00,
2013-06-08 00:41:00,57.6,49.7,30.12,NE,45,0.0,0.0,75,0.00,,,0.00,WSDL version 427,2013-06-08 05:41:00,
2013-06-08 00:46:00,57.4,49.7,30.12,NE,45,0.0,0.0,76,0.00,,,0.00,WSDL version 427,2013-06-08 05:46:00,
2013-06-08 00:51:00,57.3,49.8,30.12,NE,45,0.0,0.0,76,0.00,,,0.00,WSDL version 427,2013-06-08 05:51:00,
2013-06-08 00:56:00,57.2,49.7,30.12,NE,45,0.0,0.0,76,0.00,,,0.00,WSDL version 427,2013-06-08 05:56:00,
2013-06-08 01:01:00,57.2,50.0,30.12,NE,45,0.0,0.0,77,0.00,,,0.00,WSDL version 427,2013-06-08 06:01:00,
2013-06-08 01:06:00,57.0,50.1,30.12,NE,45,0.0,0.0,78,0.00,,,0.00,WSDL version 427,2013-06-08 06:06:00,
2013-06-08 01:11:00,56.8,50.1,30.12,NE,45,0.0,0.0,78,0.00,,,0.00,WSDL version 427,2013-06-08 06:11:00,
2013-06-08 01:16:00,56.8,50.0,30.09,NE,45,0.0,0.0,78,0.00,,,0.00,WSDL version 427,2013-06-08 06:16:00,
2013-06-08 01:21:00,56.6,49.9,30.09,NE,45,0.0,0.0,78,0.00,,,0.00,WSDL version 427,2013-06-08 06:21:00,
2013-06-08 01:26:00,56.5,49.7,30.09,NE,45,0.0,0.0,78,0.00,,,0.00,WSDL version 427,2013-06-08 06:26:00,
2013-06-08 01:31:00,56.3,49.6,30.09,NE,45,0.0,0.0,78,0.00,,,0.00,WSDL version 427,2013-06-08 06:31:00,
2013-06-08 01:36:00,56.3,49.5,30.09,NE,45,0.0,0.0,78,0.00,,,0.00,WSDL version 427,2013-06-08 06:36:00,
2013-06-08 01:41:00,56.1,49.3,30.09,NE,45,0.0,0.0,78,0.00,,,0.00,WSDL version 427,2013-06-08 06:41:00,
2013-06-08 01:46:00,55.9,49.2,30.09,NE,45,0.0,0.0,78,0.00,,,0.00,WSDL version 427,2013-06-08 06:46:00,
2013-06-08 01:51:00,55.8,49.2,30.09,NE,45,0.0,0.0,79,0.00,,,0.00,WSDL version 427,2013-06-08 06:51:00,
2013-06-08 01:56:00,55.8,49.4,30.09,NE,45,0.0,0.0,79,0.00,,,0.00,WSDL version 427,2013-06-08 06:56:00,
2013-06-08 02:01:00,55.8,49.4,30.12,NE,45,0.0,0.0,80,0.00,,,0.00,WSDL version 427,2013-06-08 07:01:00,
2013-06-08 02:06:00,55.6,49.6,30.12,NE,45,0.0,0.0,80,0.00,,,0.00,WSDL version 427,2013-06-08 07:06:00,
2013-06-08 02:11:00,55.6,49.5,30.12,NE,45,0.0,0.0,80,0.00,,,0.00,WSDL version 427,2013-06-08 07:11:00,
2013-06-08 02:16:00,55.6,49.5,30.12,NE,45,0.0,0.0,80,0.00,,,0.00,WSDL version 427,2013-06-08 07:16:00,
2013-06-08 02:21:00,55.5,49.5,30.12,NE,45,0.0,0.0,80,0.00,,,0.00,WSDL version 427,2013-06-08 07:21:00,
2013-06-08 02:26:00,55.4,49.3,30.12,NE,45,0.0,0.0,80,0.00,,,0.00,WSDL version 427,2013-06-08 07:26:00,
2013-06-08 02:31:00,55.4,49.5,30.09,NE,45,0.0,0.0,81,0.00,,,0.00,WSDL version 427,2013-06-08 07:31:00,
2013-06-08 02:36:00,55.2,49.5,30.09,NE,45,0.0,0.0,81,0.00,,,0.00,WSDL version 427,2013-06-08 07:36:00,
2013-06-08 02:41:00,55.1,49.4,30.09,NE,45,0.0,0.0,81,0.00,,,0.00,WSDL version 427,2013-06-08 07:41:00,
2013-06-08 02:46:00,55.0,49.3,30.09,NE,45,0.0,0.0,81,0.00,,,0.00,WSDL version 427,2013-06-08 07:46:00,
2013-06-08 02:51:00,54.9,49.2,30.09,NE,45,0.0,0.0,81,0.00,,,0.00,WSDL version 427,2013-06-08 07:51:00,
2013-06-08 02:56:00,54.7,49.0,30.09,NE,45,0.0,0.0,81,0.00,,,0.00,WSDL version 427,2013-06-08 07:56:00,
2013-06-08 03:01:00,54.6,48.9,30.09,NE,45,0.0,0.0,81,0.00,,,0.00,WSDL version 427,2013-06-08 08:01:00,
2013-06-08 03:06:00,54.5,48.8,30.09,NE,45,0.0,0.0,81,0.00,,,0.00,WSDL version 427,2013-06-08 08:06:00,
2013-06-08 03:11:00,54.5,48.8,30.09,NE,45,0.0,0.0,81,0.00,,,0.00,WSDL version 427,2013-06-08 08:11:00,
2013-06-08 03:16:00,54.4,48.7,30.09,NE,45,0.0,0.0,81,0.00,,,0.00,WSDL version 427,2013-06-08 08:16:00,
2013-06-08 03:21:00,54.3,48.7,30.09,NE,45,0.0,0.0,81,0.00,,,0.00,WSDL version 427,2013-06-08 08:21:00,
2013-06-08 03:26:00,54.2,48.6,30.09,NE,45,0.0,0.0,81,0.00,,,0.00,WSDL version 427,2013-06-08 08:26:00,
2013-06-08 03:31:00,54.1,48.5,30.09,NE,45,0.0,0.0,81,0.00,,,0.00,WSDL version 427,2013-06-08 08:31:00,
2013-06-08 03:36:00,54.1,48.5,30.09,NE,45,0.0,0.0,81,0.00,,,0.00,WSDL version 427,2013-06-08 08:36:00,
2013-06-08 03:41:00,54.1,48.4,30.09,NE,45,0.0,0.0,81,0.00,,,0.00,WSDL version 427,2013-06-08 08:41:00,
2013-06-08 03:46:00,54.0,48.5,30.09,NE,45,0.0,0.0,81,0.00,,,0.00,WSDL version 427,2013-06-08 08:46:00,
2013-06-08 03:51:00,54.0,48.4,30.09,NE,45,0.0,0.0,82,0.00,,,0.00,WSDL version 427,2013-06-08 08:51:00,
2013-06-08 03:56:00,53.8,48.5,30.09,NE,45,0.0,0.0,82,0.00,,,0.00,WSDL version 427,2013-06-08 08:56:00,
2013-06-08 04:01:00,53.8,48.5,30.09,NE,45,0.0,0.0,82,0.00,,,0.00,WSDL version 427,2013-06-08 09:01:00,
2013-06-08 04:06:00,53.7,48.4,30.09,NE,45,0.0,0.0,82,0.00,,,0.00,WSDL version 427,2013-06-08 09:06:00,
2013-06-08 04:11:00,53.6,48.3,30.09,NE,45,0.0,0.0,82,0.00,,,0.00,WSDL version 427,2013-06-08 09:11:00,
2013-06-08 04:16:00,53.6,48.3,30.09,NE,45,0.0,0.0,82,0.00,,,0.00,WSDL version 427,2013-06-08 09:16:00,
2013-06-08 04:21:00,53.6,48.3,30.09,NE,45,0.0,0.0,82,0.00,,,0.00,WSDL version 427,2013-06-08 09:21:00,
2013-06-08 04:26:00,53.4,48.1,30.09,NE,45,0.0,0.0,82,0.00,,,0.00,WSDL version 427,2013-06-08 09:26:00,
2013-06-08 04:31:00,53.3,48.1,30.12,NE,45,0.0,0.0,82,0.00,,,0.00,WSDL version 427,2013-06-08 09:31:00,
2013-06-08 04:36:00,53.2,48.0,30.12,NE,45,0.0,0.0,82,0.00,,,0.00,WSDL version 427,2013-06-08 09:36:00,
2013-06-08 04:41:00,53.1,47.8,30.12,NE,45,0.0,0.0,82,0.00,,,0.00,WSDL version 427,2013-06-08 09:41:00,
2013-06-08 04:46:00,53.1,48.1,30.12,NE,45,0.0,0.0,83,0.00,,,0.00,WSDL version 427,2013-06-08 09:46:00,
2013-06-08 04:51:00,53.1,48.1,30.12,NE,45,0.0,0.0,83,0.00,,,0.00,WSDL version 427,2013-06-08 09:51:00,
2013-06-08 04:56:00,53.1,48.1,30.12,NE,45,0.0,0.0,83,0.00,,,0.00,WSDL version 427,2013-06-08 09:56:00,
2013-06-08 05:01:00,53.0,48.1,30.12,NE,45,0.0,0.0,83,0.00,,,0.00,WSDL version 427,2013-06-08 10:01:00,
2013-06-08 05:06:00,52.9,48.0,30.12,NE,45,0.0,0.0,83,0.00,,,0.00,WSDL version 427,2013-06-08 10:06:00,
2013-06-08 05:11:00,52.9,48.0,30.12,NE,45,0.0,0.0,83,0.00,,,0.00,WSDL version 427,2013-06-08 10:11:00,
2013-06-08 05:16:00,52.8,47.9,30.12,NE,45,0.0,0.0,83,0.00,,,0.00,WSDL version 427,2013-06-08 10:16:00,
2013-06-08 05:21:00,52.7,47.8,30.12,NE,45,0.0,0.0,83,0.00,,,0.00,WSDL version 427,2013-06-08 10:21:00,
2013-06-08 05:26:00,52.7,47.8,30.12,NE,45,0.0,0.0,83,0.00,,,0.00,WSDL version 427,2013-06-08 10:26:00,
2013-06-08 05:31:00,52.6,47.7,30.12,NE,45,0.0,0.0,83,0.00,,,0.00,WSDL version 427,2013-06-08 10:31:00,
2013-06-08 05:36:00,52.5,47.6,30.12,NE,45,0.0,0.0,83,0.00,,,0.00,WSDL version 427,2013-06-08 10:36:00,
2013-06-08 05:41:00,52.5,47.6,30.12,NE,45,0.0,0.0,83,0.00,,,0.00,WSDL version 427,2013-06-08 10:41:00,
2013-06-08 05:46:00,52.3,47.4,30.12,NE,45,0.0,0.0,83,0.00,,,0.00,WSDL version 427,2013-06-08 10:46:00,
2013-06-08 05:51:00,52.3,47.4,30.12,NE,45,0.0,0.0,83,0.00,,,0.00,WSDL version 427,2013-06-08 10:51:00,
2013-06-08 05:56:00,52.3,47.4,30.12,NE,45,0.0,0.0,83,0.00,,,0.00,WSDL version 427,2013-06-08 10:56:00,
2013-06-08 06:01:00,52.2,47.3,30.12,NE,45,0.0,0.0,83,0.00,,,0.00,WSDL version 427,2013-06-08 11:01:00,
2013-06-08 06:06:00,52.1,47.2,30.12,NE,45,0.0,0.0,83,0.00,,,0.00,WSDL version 427,2013-06-08 11:06:00,
2013-06-08 06:11:00,51.9,47.0,30.12,NE,45,0.0,0.0,83,0.00,,,0.00,WSDL version 427,2013-06-08 11:11:00,
2013-06-08 06:16:00,51.8,46.9,30.12,NE,45,0.0,0.0,83,0.00,,,0.00,WSDL version 427,2013-06-08 11:16:00,
2013-06-08 06:21:00,51.8,47.3,30.12,NE,45,0.0,0.0,84,0.00,,,0.00,WSDL version 427,2013-06-08 11:21:00,
2013-06-08 06:26:00,51.8,47.3,30.12,NE,45,0.0,0.0,84,0.00,,,0.00,WSDL version 427,2013-06-08 11:26:00,
2013-06-08 06:31:00,51.9,47.4,30.12,NE,45,0.0,0.0,84,0.00,,,0.00,WSDL version 427,2013-06-08 11:31:00,
2013-06-08 06:36:00,52.0,47.8,30.12,NE,45,0.0,0.0,86,0.00,,,0.00,WSDL version 427,2013-06-08 11:36:00,
2013-06-08 06:41:00,52.1,47.9,30.12,NE,45,0.0,0.0,86,0.00,,,0.00,WSDL version 427,2013-06-08 11:41:00,
2013-06-08 06:46:00,52.2,48.0,30.12,NE,45,0.0,0.0,86,0.00,,,0.00,WSDL version 427,2013-06-08 11:46:00,
2013-06-08 06:51:00,52.3,48.4,30.12,NE,45,0.0,0.0,87,0.00,,,0.00,WSDL version 427,2013-06-08 11:51:00,
2013-06-08 06:56:00,52.4,48.6,30.12,NE,45,0.0,0.0,87,0.00,,,0.00,WSDL version 427,2013-06-08 11:56:00,
2013-06-08 07:01:00,52.5,48.7,30.09,NE,45,0.0,0.0,87,0.00,,,0.00,WSDL version 427,2013-06-08 12:01:00,
2013-06-08 07:06:00,52.7,48.8,30.09,NE,45,0.0,0.0,87,0.00,,,0.00,WSDL version 427,2013-06-08 12:06:00,
2013-06-08 07:11:00,52.9,49.4,30.09,NE,45,0.0,0.0,88,0.00,,,0.00,WSDL version 427,2013-06-08 12:11:00,
2013-06-08 07:16:00,53.1,49.8,30.12,NE,45,0.0,0.0,89,0.00,,,0.00,WSDL version 427,2013-06-08 12:16:00,
2013-06-08 07:21:00,53.4,50.2,30.12,NE,45,0.0,0.0,89,0.00,,,0.00,WSDL version 427,2013-06-08 12:21:00,
2013-06-08 07:26:00,53.6,50.3,30.12,NE,45,0.0,0.0,89,0.00,,,0.00,WSDL version 427,2013-06-08 12:26:00,
2013-06-08 07:31:00,53.9,50.7,30.12,NE,45,0.0,0.0,89,0.00,,,0.00,WSDL version 427,2013-06-08 12:31:00,
2013-06-08 07:36:00,54.2,51.0,30.12,NE,45,0.0,0.0,89,0.00,,,0.00,WSDL version 427,2013-06-08 12:36:00,
2013-06-08 07:41:00,54.5,51.3,30.12,NW,324,0.0,1.3,89,0.00,,,0.00,WSDL version 427,2013-06-08 12:41:00,
2013-06-08 07:46:00,54.9,51.9,30.12,North,360,0.0,1.3,90,0.00,,,0.00,WSDL version 427,2013-06-08 12:46:00,
2013-06-08 07:51:00,55.3,52.3,30.12,North,360,0.0,0.0,90,0.00,,,0.00,WSDL version 427,2013-06-08 12:51:00,
2013-06-08 07:56:00,55.7,52.8,30.12,North,360,0.0,0.0,90,0.00,,,0.00,WSDL version 427,2013-06-08 12:56:00,
2013-06-08 08:01:00,56.0,53.1,30.12,North,360,0.0,0.0,90,0.00,,,0.00,WSDL version 427,2013-06-08 13:01:00,
2013-06-08 08:06:00,56.4,53.5,30.12,SW,225,0.0,0.0,90,0.00,,,0.00,WSDL version 427,2013-06-08 13:06:00,
2013-06-08 08:11:00,56.8,53.9,30.12,SW,225,0.0,0.0,90,0.00,,,0.00,WSDL version 427,2013-06-08 13:11:00,
2013-06-08 08:16:00,57.2,54.3,30.12,SW,225,0.0,0.0,90,0.00,,,0.00,WSDL version 427,2013-06-08 13:16:00,
2013-06-08 08:21:00,57.5,54.6,30.12,ENE,68,0.0,0.0,90,0.00,,,0.00,WSDL version 427,2013-06-08 13:21:00,
2013-06-08 08:26:00,58.0,55.1,30.12,ENE,68,0.0,0.0,90,0.00,,,0.00,WSDL version 427,2013-06-08 13:26:00,
2013-06-08 08:31:00,58.3,55.2,30.09,ENE,68,0.0,0.0,89,0.00,,,0.00,WSDL version 427,2013-06-08 13:31:00,
2013-06-08 08:36:00,58.7,55.5,30.09,ENE,68,0.0,0.0,89,0.00,,,0.00,WSDL version 427,2013-06-08 13:36:00,
2013-06-08 08:41:00,59.2,55.9,30.09,ENE,68,0.2,1.6,89,0.00,,,0.00,WSDL version 427,2013-06-08 13:41:00,
2013-06-08 08:46:00,59.7,56.4,30.12,NW,320,0.6,2.5,89,0.00,,,0.00,WSDL version 427,2013-06-08 13:46:00,
2013-06-08 08:51:00,60.2,56.9,30.12,WSW,248,0.0,2.5,89,0.00,,,0.00,WSDL version 427,2013-06-08 13:51:00,
2013-06-08 08:56:00,60.7,57.5,30.12,SSW,203,0.0,1.6,89,0.00,,,0.00,WSDL version 427,2013-06-08 13:56:00,
2013-06-08 09:01:00,61.3,58.0,30.12,SSE,158,0.0,2.9,89,0.00,,,0.00,WSDL version 427,2013-06-08 14:01:00,
2013-06-08 09:06:00,61.9,58.6,30.12,WSW,245,0.4,2.9,89,0.00,,,0.00,WSDL version 427,2013-06-08 14:06:00,
2013-06-08 09:11:00,62.7,59.0,30.12,South,190,1.3,2.7,87,0.00,,,0.00,WSDL version 427,2013-06-08 14:11:00,
2013-06-08 09:16:00,63.4,58.7,30.12,South,182,0.7,2.7,83,0.00,,,0.00,WSDL version 427,2013-06-08 14:16:00,
2013-06-08 09:21:00,64.0,57.9,30.12,SSW,196,1.5,2.5,78,0.00,,,0.00,WSDL version 427,2013-06-08 14:21:00,
2013-06-08 09:26:00,64.6,57.3,30.12,SE,135,0.7,2.5,77,0.00,,,0.00,WSDL version 427,2013-06-08 14:26:00,
2013-06-08 09:31:00,65.0,57.4,30.12,SSW,198,1.2,2.5,76,0.00,,,0.00,WSDL version 427,2013-06-08 14:31:00,
2013-06-08 09:36:00,65.5,57.4,30.12,ESE,117,1.3,3.8,75,0.00,,,0.00,WSDL version 427,2013-06-08 14:36:00,
2013-06-08 09:41:00,66.0,57.1,30.12,SW,215,1.8,3.8,71,0.00,,,0.00,WSDL version 427,2013-06-08 14:41:00,
2013-06-08 09:46:00,66.3,56.4,30.12,West,266,1.9,3.6,70,0.00,,,0.00,WSDL version 427,2013-06-08 14:46:00,
2013-06-08 09:51:00,66.7,56.5,30.12,NE,34,0.7,3.6,70,0.00,,,0.00,WSDL version 427,2013-06-08 14:51:00,
2013-06-08 09:56:00,67.1,56.4,30.12,SSE,158,0.3,2.9,68,0.00,,,0.00,WSDL version 427,2013-06-08 14:56:00,
2013-06-08 10:01:00,67.5,56.5,30.12,SW,225,2.1,3.1,67,0.00,,,0.00,WSDL version 427,2013-06-08 15:01:00,
2013-06-08 10:06:00,67.8,56.0,30.12,SSE,147,1.5,3.4,66,0.00,,,0.00,WSDL version 427,2013-06-08 15:06:00,
2013-06-08 10:11:00,68.2,55.9,30.12,SSW,200,1.7,3.4,64,0.00,,,0.00,WSDL version 427,2013-06-08 15:11:00,
2013-06-08 10:16:00,68.5,55.1,30.12,SSW,209,2.1,4.3,61,0.00,,,0.00,WSDL version 427,2013-06-08 15:16:00,
2013-06-08 10:21:00,68.8,54.8,30.12,SW,220,2.3,4.3,60,0.00,,,0.00,WSDL version 427,2013-06-08 15:21:00,
2013-06-08 10:26:00,69.1,54.9,30.12,SSW,204,1.5,4.5,59,0.00,,,0.00,WSDL version 427,2013-06-08 15:26:00,
2013-06-08 10:31:00,69.3,54.5,30.09,South,171,1.7,4.5,59,0.00,,,0.00,WSDL version 427,2013-06-08 15:31:00,
2013-06-08 10:36:00,69.4,55.1,30.09,South,176,2.0,3.6,60,0.00,,,0.00,WSDL version 427,2013-06-08 15:36:00,
2013-06-08 10:41:00,69.5,54.9,30.09,SSW,210,1.9,3.6,59,0.00,,,0.00,WSDL version 427,2013-06-08 15:41:00,
2013-06-08 10:46:00,69.6,55.2,30.12,West,263,1.8,3.8,59,0.00,,,0.00,WSDL version 427,2013-06-08 15:46:00,
2013-06-08 10:51:00,69.6,54.5,30.12,SSE,162,1.9,3.8,58,0.00,,,0.00,WSDL version 427,2013-06-08 15:51:00,
2013-06-08 10:56:00,69.6,53.7,30.12,SW,231,2.4,3.1,56,0.00,,,0.00,WSDL version 427,2013-06-08 15:56:00,
2013-06-08 11:01:00,69.7,53.1,30.12,South,182,1.3,3.1,56,0.00,,,0.00,WSDL version 427,2013-06-08 16:01:00,
2013-06-08 11:06:00,69.9,54.5,30.12,WSW,248,1.7,3.1,59,0.00,,,0.00,WSDL version 427,2013-06-08 16:06:00,
2013-06-08 11:11:00,69.7,55.1,30.12,SSE,158,1.6,3.6,61,0.00,,,0.00,WSDL version 427,2013-06-08 16:11:00,
2013-06-08 11:16:00,69.4,55.2,30.12,South,184,1.7,4.3,59,0.00,,,0.00,WSDL version 427,2013-06-08 16:16:00,
2013-06-08 11:21:00,69.5,54.8,30.12,SE,133,2.4,4.3,63,0.00,,,0.00,WSDL version 427,2013-06-08 16:21:00,
2013-06-08 11:26:00,69.3,54.9,30.12,SSW,195,2.0,4.3,60,0.00,,,0.00,WSDL version 427,2013-06-08 16:26:00,
2013-06-08 11:31:00,69.4,54.3,30.12,SW,230,2.4,4.7,55,0.00,,,0.00,WSDL version 427,2013-06-08 16:31:00,
2013-06-08 11:36:00,69.8,53.0,30.12,SW,214,1.1,4.7,56,0.00,,,0.00,WSDL version 427,2013-06-08 16:36:00,
2013-06-08 11:41:00,70.5,53.9,30.12,SW,218,2.2,3.6,54,0.00,,,0.00,WSDL version 427,2013-06-08 16:41:00,
2013-06-08 11:46:00,70.8,52.0,30.09,SW,225,2.7,3.8,49,0.00,,,0.00,WSDL version 427,2013-06-08 16:46:00,
2013-06-08 11:51:00,70.8,52.2,30.09,SSW,211,1.6,3.8,53,0.00,,,0.00,WSDL version 427,2013-06-08 16:51:00,
2013-06-08 11:56:00,70.7,54.0,30.09,South,173,2.2,3.4,56,0.00,,,0.00,WSDL version 427,2013-06-08 16:56:00,
2013-06-08 12:01:00,69.9,56.2,30.12,SSW,193,2.4,4.3,60,0.00,,,0.00,WSDL version 427,2013-06-08 17:01:00,
2013-06-08 12:06:00,69.4,53.6,30.12,South,170,1.9,4.3,56,0.00,,,0.00,WSDL version 427,2013-06-08 17:06:00,
2013-06-08 12:11:00,69.6,51.9,30.12,WSW,239,3.2,5.8,51,0.00,,,0.00,WSDL version 427,2013-06-08 17:11:00,
2013-06-08 12:16:00,70.3,52.9,30.12,WNW,293,1.6,5.8,55,0.00,,,0.00,WSDL version 427,2013-06-08 17:16:00,
2013-06-08 12:21:00,70.7,53.9,30.12,SSE,160,1.1,4.0,56,0.00,,,0.00,WSDL version 427,2013-06-08 17:21:00,
2013-06-08 12:27:00,70.8,53.6,30.12,SW,219,2.0,2.9,55,0.00,,,0.00,WSDL version 427,2013-06-08 17:27:00,
2013-06-08 12:32:00,71.4,55.1,30.12,SE,143,2.1,4.0,57,0.00,,,0.00,WSDL version 427,2013-06-08 17:32:00,
2013-06-08 12:37:00,71.9,55.5,30.12,South,171,1.3,4.0,54,0.00,,,0.00,WSDL version 427,2013-06-08 17:37:00,
2013-06-08 12:42:00,72.3,54.7,30.12,SSW,209,2.0,4.9,51,0.00,,,0.00,WSDL version 427,2013-06-08 17:42:00,
2013-06-08 12:47:00,72.5,53.7,30.09,SSW,207,1.8,4.9,52,0.00,,,0.00,WSDL version 427,2013-06-08 17:47:00,
2013-06-08 12:52:00,72.9,53.4,30.09,NW,315,2.3,4.7,51,0.00,,,0.00,WSDL version 427,2013-06-08 17:52:00,
2013-06-08 12:57:00,73.0,54.0,30.09,WSW,239,1.8,4.3,49,0.00,,,0.00,WSDL version 427,2013-06-08 17:57:00,
2013-06-08 13:02:00,72.9,50.8,30.09,South,175,1.1,4.3,47,0.00,,,0.00,WSDL version 427,2013-06-08 18:02:00,
2013-06-08 13:07:00,72.9,52.2,30.09,SSE,155,1.8,3.6,49,0.00,,,0.00,WSDL version 427,2013-06-08 18:07:00,
2013-06-08 13:12:00,73.2,53.5,30.09,SW,218,2.6,4.0,50,0.00,,,0.00,WSDL version 427,2013-06-08 18:12:00,
2013-06-08 13:17:00,73.6,52.1,30.09,WSW,242,2.7,4.9,47,0.00,,,0.00,WSDL version 427,2013-06-08 18:17:00,
2013-06-08 13:22:00,73.8,52.2,30.09,SW,227,1.8,4.9,48,0.00,,,0.00,WSDL version 427,2013-06-08 18:22:00,
2013-06-08 13:27:00,74.1,52.9,30.09,SSE,148,1.8,4.9,49,0.00,,,0.00,WSDL version 427,2013-06-08 18:27:00,
2013-06-08 13:32:00,74.5,52.4,30.09,SW,231,1.9,4.9,45,0.00,,,0.00,WSDL version 427,2013-06-08 18:32:00,
2013-06-08 13:37:00,74.7,52.5,30.09,ESE,108,1.5,3.8,47,0.00,,,0.00,WSDL version 427,2013-06-08 18:37:00,
2013-06-08 13:42:00,74.8,53.3,30.09,SSE,149,0.8,4.0,47,0.00,,,0.00,WSDL version 427,2013-06-08 18:42:00,
2013-06-08 13:47:00,75.1,53.2,30.06,SSE,164,1.9,4.0,47,0.00,,,0.00,WSDL version 427,2013-06-08 18:47:00,
2013-06-08 13:52:00,75.4,53.0,30.06,SSE,158,1.5,3.8,46,0.00,,,0.00,WSDL version 427,2013-06-08 18:52:00,
2013-06-08 13:57:00,75.4,53.8,30.06,SSW,193,1.3,2.9,47,0.00,,,0.00,WSDL version 427,2013-06-08 18:57:00,
2013-06-08 14:02:00,75.5,52.2,30.06,WSW,237,2.5,4.9,43,0.00,,,0.00,WSDL version 427,2013-06-08 19:02:00,
2013-06-08 14:07:00,75.7,51.6,30.06,SW,221,2.5,4.9,41,0.00,,,0.00,WSDL version 427,2013-06-08 19:07:00,
2013-06-08 14:12:00,75.4,51.2,30.06,WSW,253,2.4,3.4,43,0.00,,,0.00,WSDL version 427,2013-06-08 19:12:00,
2013-06-08 14:17:00,75.2,50.9,30.06,WSW,254,1.8,5.4,41,0.00,,,0.00,WSDL version 427,2013-06-08 19:17:00,
2013-06-08 14:22:00,75.4,50.9,30.06,SW,234,1.0,5.4,42,0.00,,,0.00,WSDL version 427,2013-06-08 19:22:00,
2013-06-08 14:27:00,75.4,50.7,30.06,SW,225,1.8,3.8,42,0.00,,,0.00,WSDL version 427,2013-06-08 19:27:00,
2013-06-08 14:37:00,75.7,52.3,30.06,SW,225,1.3,3.1,44,0.00,,,0.00,WSDL version 427,2013-06-08 19:37:00,
2013-06-08 14:47:00,75.9,52.5,30.06,SSW,203,1.5,3.4,44,0.00,,,0.00,WSDL version 427,2013-06-08 19:47:00,
2013-06-08 14:52:00,76.0,52.1,30.06,SW,221,1.0,3.6,46,0.00,,,0.00,WSDL version 427,2013-06-08 19:52:00,
2013-06-08 14:57:00,76.9,53.1,30.06,South,173,2.4,3.8,44,0.00,,,0.00,WSDL version 427,2013-06-08 19:57:00,
2013-06-08 15:05:00,77.0,50.9,30.06,South,185,2.8,3.6,40,0.00,,,0.00,WSDL version 427,2013-06-08 20:05:00,
2013-06-08 15:10:00,77.0,51.2,30.06,SSE,160,0.4,3.6,41,0.00,,,0.00,WSDL version 427,2013-06-08 20:10:00,
2013-06-08 15:15:00,77.9,51.4,30.06,SW,221,1.4,5.6,40,0.00,,,0.00,WSDL version 427,2013-06-08 20:15:00,
2013-06-08 15:20:00,78.3,50.9,30.03,SSW,210,1.9,5.6,35,0.00,,,0.00,WSDL version 427,2013-06-08 20:20:00,
2013-06-08 15:25:00,77.7,49.7,30.03,SW,220,2.1,3.8,38,0.00,,,0.00,WSDL version 427,2013-06-08 20:25:00,
2013-06-08 15:30:00,77.4,50.1,30.03,ESE,110,1.1,3.1,40,0.00,,,0.00,WSDL version 427,2013-06-08 20:30:00,
2013-06-08 15:35:00,78.7,50.5,30.06,WSW,253,1.1,2.9,37,0.00,,,0.00,WSDL version 427,2013-06-08 20:35:00,
2013-06-08 15:40:00,78.3,52.0,30.06,SW,216,1.8,3.4,39,0.00,,,0.00,WSDL version 427,2013-06-08 20:40:00,
2013-06-08 15:45:00,77.7,51.5,30.06,SSW,213,1.1,3.4,40,0.00,,,0.00,WSDL version 427,2013-06-08 20:45:00,
2013-06-08 15:50:00,78.4,52.9,30.06,SE,142,2.9,4.7,41,0.00,,,0.00,WSDL version 427,2013-06-08 20:50:00,
2013-06-08 15:55:00,78.7,51.6,30.06,SW,221,2.1,4.7,36,0.00,,,0.00,WSDL version 427,2013-06-08 20:55:00,
2013-06-08 16:00:00,77.8,50.2,30.06,WSW,239,1.9,3.8,39,0.00,,,0.00,WSDL version 427,2013-06-08 21:00:00,
2013-06-08 16:05:00,77.7,49.4,30.06,WSW,239,2.1,3.8,36,0.00,,,0.00,WSDL version 427,2013-06-08 21:05:00,
2013-06-08 16:10:00,78.7,50.4,30.06,SSE,153,1.3,3.6,38,0.00,,,0.00,WSDL version 427,2013-06-08 21:10:00,
2013-06-08 16:19:00,79.0,49.0,30.06,SW,214,2.2,3.4,35,0.00,,,0.00,WSDL version 427,2013-06-08 21:19:00,
2013-06-08 16:24:00,79.3,49.3,30.06,SW,220,2.5,4.5,34,0.00,,,0.00,WSDL version 427,2013-06-08 21:24:00,
2013-06-08 16:29:00,79.0,47.8,30.06,SSW,213,2.2,4.5,33,0.00,,,0.00,WSDL version 427,2013-06-08 21:29:00,
2013-06-08 16:34:00,78.7,48.2,30.06,SW,220,1.9,3.6,36,0.00,,,0.00,WSDL version 427,2013-06-08 21:34:00,
2013-06-08 16:39:00,78.8,49.4,30.06,SE,139,1.5,4.0,37,0.00,,,0.00,WSDL version 427,2013-06-08 21:39:00,
2013-06-08 16:44:00,79.3,49.5,30.06,SSW,200,1.6,4.0,35,0.00,,,0.00,WSDL version 427,2013-06-08 21:44:00,
2013-06-08 16:49:00,78.4,49.6,30.06,SSW,192,0.7,2.5,37,0.00,,,0.00,WSDL version 427,2013-06-08 21:49:00,
2013-06-08 16:54:00,78.6,51.3,30.06,WSW,238,1.2,3.6,38,0.00,,,0.00,WSDL version 427,2013-06-08 21:54:00,
2013-06-08 16:59:00,79.4,53.0,30.06,SSW,198,0.0,3.6,40,0.00,,,0.00,WSDL version 427,2013-06-08 21:59:00,
2013-06-08 17:04:00,79.1,52.8,30.06,SSW,196,0.0,1.6,40,0.00,,,0.00,WSDL version 427,2013-06-08 22:04:00,
2013-06-08 17:09:00,80.6,53.9,30.06,SSW,203,2.0,3.4,39,0.00,,,0.00,WSDL version 427,2013-06-08 22:09:00,
2013-06-08 17:14:00,81.0,52.6,30.06,SSE,164,1.1,5.6,37,0.00,,,0.00,WSDL version 427,2013-06-08 22:14:00,
2013-06-08 17:19:00,80.8,52.7,30.03,SW,230,1.6,5.6,37,0.00,,,0.00,WSDL version 427,2013-06-08 22:19:00,
2013-06-08 17:24:00,81.1,50.5,30.03,SW,221,2.1,3.4,35,0.00,,,0.00,WSDL version 427,2013-06-08 22:24:00,
2013-06-08 17:29:00,80.4,50.3,30.03,SSW,205,1.4,3.1,35,0.00,,,0.00,WSDL version 427,2013-06-08 22:29:00,
2013-06-08 17:34:00,79.8,50.2,30.03,SSW,203,1.7,3.4,35,0.00,,,0.00,WSDL version 427,2013-06-08 22:34:00,
2013-06-08 17:39:00,79.9,50.6,30.03,SSW,210,1.9,3.4,37,0.00,,,0.00,WSDL version 427,2013-06-08 22:39:00,
2013-06-08 17:44:00,80.1,51.5,30.03,SSW,212,1.6,3.4,37,0.00,,,0.00,WSDL version 427,2013-06-08 22:44:00,
2013-06-08 17:49:00,80.8,50.6,30.03,SW,214,1.2,2.9,34,0.00,,,0.00,WSDL version 427,2013-06-08 22:49:00,
2013-06-08 17:54:00,80.9,50.9,30.03,SW,214,1.1,2.9,36,0.00,,,0.00,WSDL version 427,2013-06-08 22:54:00,
2013-06-08 17:59:00,80.2,50.9,30.03,South,190,0.9,3.1,37,0.00,,,0.00,WSDL version 427,2013-06-08 22:59:00,
2013-06-08 18:04:00,81.3,50.4,30.03,SW,219,0.4,3.1,35,0.00,,,0.00,WSDL version 427,2013-06-08 23:04:00,
2013-06-08 18:09:00,81.6,51.4,30.03,SSE,162,1.0,3.1,35,0.00,,,0.00,WSDL version 427,2013-06-08 23:09:00,
2013-06-08 18:14:00,81.9,50.6,30.03,East,98,0.7,3.4,32,0.00,,,0.00,WSDL version 427,2013-06-08 23:14:00,
2013-06-08 18:19:00,82.2,49.5,30.03,SSW,205,1.5,3.4,31,0.00,,,0.00,WSDL version 427,2013-06-08 23:19:00,
2013-06-08 18:24:00,81.5,49.5,30.03,SSW,196,1.4,4.5,33,0.00,,,0.00,WSDL version 427,2013-06-08 23:24:00,
2013-06-08 18:29:00,81.5,49.1,30.03,SSW,203,1.9,4.5,32,0.00,,,0.00,WSDL version 427,2013-06-08 23:29:00,
2013-06-08 18:34:00,81.3,48.8,30.03,South,184,1.2,3.8,32,0.00,,,0.00,WSDL version 427,2013-06-08 23:34:00,
2013-06-08 18:39:00,81.2,49.4,30.03,SSE,162,1.5,2.7,33,0.00,,,0.00,WSDL version 427,2013-06-08 23:39:00,
2013-06-08 18:44:00,82.1,50.2,30.03,SSW,203,0.0,2.2,33,0.00,,,0.00,WSDL version 427,2013-06-08 23:44:00,
2013-06-08 18:49:00,82.6,50.6,30.03,SW,225,0.4,2.0,34,0.00,,,0.00,WSDL version 427,2013-06-08 23:49:00,
2013-06-08 18:54:00,82.5,51.0,30.03,SSW,203,0.0,2.0,34,0.00,,,0.00,WSDL version 427,2013-06-08 23:54:00,
2013-06-08 18:59:00,83.0,50.6,30.03,SSW,203,0.0,2.0,32,0.00,,,0.00,WSDL version 427,2013-06-08 23:59:00,
2013-06-08 19:04:00,82.5,50.5,30.03,SSW,194,1.0,1.6,33,0.00,,,0.00,WSDL version 427,2013-06-09 00:04:00,
2013-06-08 19:09:00,82.3,50.3,30.03,SSE,160,0.7,2.2,33,0.00,,,0.00,WSDL version 427,2013-06-09 00:09:00,
2013-06-08 19:14:00,81.9,50.0,30.03,SSE,158,0.4,2.2,33,0.00,,,0.00,WSDL version 427,2013-06-09 00:14:00,
2013-06-08 19:19:00,80.7,49.5,30.03,SE,143,1.2,2.9,35,0.00,,,0.00,WSDL version 427,2013-06-09 00:19:00,
2013-06-08 19:24:00,80.3,50.5,30.03,SE,135,0.6,2.9,35,0.00,,,0.00,WSDL version 427,2013-06-09 00:24:00,
2013-06-08 19:29:00,79.5,49.7,30.03,SE,135,1.6,2.7,35,0.00,,,0.00,WSDL version 427,2013-06-09 00:29:00,
2013-06-08 19:34:00,78.6,50.2,30.00,SSE,158,1.3,2.9,38,0.00,,,0.00,WSDL version 427,2013-06-09 00:34:00,
2013-06-08 19:39:00,78.3,50.9,30.00,SSE,158,0.5,2.9,39,0.00,,,0.00,WSDL version 427,2013-06-09 00:39:00,
2013-06-08 19:44:00,77.5,50.3,30.00,SSE,158,0.5,2.5,39,0.00,,,0.00,WSDL version 427,2013-06-09 00:44:00,
2013-06-08 19:49:00,77.2,51.4,30.00,SSE,158,0.0,2.0,41,0.00,,,0.00,WSDL version 427,2013-06-09 00:49:00,
2013-06-08 19:54:00,76.6,51.1,30.00,SSE,158,0.4,1.3,41,0.00,,,0.00,WSDL version 427,2013-06-09 00:54:00,
2013-06-08 19:59:00,76.0,51.0,30.00,SSE,158,0.0,1.3,42,0.00,,,0.00,WSDL version 427,2013-06-09 00:59:00,
2013-06-08 20:04:00,75.6,51.5,30.00,SSE,158,0.0,0.0,43,0.00,,,0.00,WSDL version 427,2013-06-09 01:04:00,
2013-06-08 20:09:00,75.0,51.4,30.00,SSE,158,0.8,2.2,44,0.00,,,0.00,WSDL version 427,2013-06-09 01:09:00,
2013-06-08 20:14:00,74.7,51.7,30.00,SSE,158,0.4,2.2,45,0.00,,,0.00,WSDL version 427,2013-06-09 01:14:00,
2013-06-08 20:19:00,74.7,52.0,30.00,SSE,150,1.4,2.5,45,0.00,,,0.00,WSDL version 427,2013-06-09 01:19:00,
2013-06-08 20:24:00,74.2,51.6,30.00,SSE,158,0.0,2.7,46,0.00,,,0.00,WSDL version 427,2013-06-09 01:24:00,
2013-06-08 20:29:00,74.4,52.8,30.00,SE,144,1.1,2.7,47,0.00,,,0.00,WSDL version 427,2013-06-09 01:29:00,
2013-06-08 20:34:00,74.1,52.0,30.00,SE,135,1.1,2.5,46,0.00,,,0.00,WSDL version 427,2013-06-09 01:34:00,
2013-06-08 20:39:00,73.9,52.3,30.00,ESE,113,1.1,3.1,47,0.00,,,0.00,WSDL version 427,2013-06-09 01:39:00,
2013-06-08 20:44:00,74.4,52.9,30.00,ESE,113,0.0,3.1,47,0.00,,,0.00,WSDL version 427,2013-06-09 01:44:00,
2013-06-08 20:49:00,73.8,52.3,30.03,SE,140,0.6,3.1,47,0.00,,,0.00,WSDL version 427,2013-06-09 01:49:00,
2013-06-08 20:54:00,73.1,52.2,30.03,ESE,117,1.2,3.1,48,0.00,,,0.00,WSDL version 427,2013-06-09 01:54:00,
2013-06-08 20:59:00,73.3,52.5,30.03,ESE,113,0.6,2.5,48,0.00,,,0.00,WSDL version 427,2013-06-09 01:59:00,
2013-06-08 21:04:00,72.9,52.1,30.03,ESE,113,0.0,2.5,48,0.00,,,0.00,WSDL version 427,2013-06-09 02:04:00,
2013-06-08 21:09:00,72.3,51.7,30.03,SSE,158,0.0,2.2,49,0.00,,,0.00,WSDL version 427,2013-06-09 02:09:00,
2013-06-08 21:14:00,72.1,52.1,30.03,East,88,0.0,2.2,50,0.00,,,0.00,WSDL version 427,2013-06-09 02:14:00,
2013-06-08 21:19:00,72.3,52.7,30.03,SSW,203,0.0,2.0,50,0.00,,,0.00,WSDL version 427,2013-06-09 02:19:00,
2013-06-08 21:24:00,71.8,52.5,30.03,SSW,203,0.0,0.0,51,0.00,,,0.00,WSDL version 427,2013-06-09 02:24:00,
2013-06-08 21:29:00,71.4,52.5,30.03,SSW,208,0.0,0.9,52,0.00,,,0.00,WSDL version 427,2013-06-09 02:29:00,
2013-06-08 21:34:00,72.1,54.0,30.06,WSW,248,0.0,0.9,53,0.00,,,0.00,WSDL version 427,2013-06-09 02:34:00,
2013-06-08 21:39:00,72.4,53.7,30.06,WSW,248,0.0,0.9,51,0.00,,,0.00,WSDL version 427,2013-06-09 02:39:00,
2013-06-08 21:44:00,71.8,53.1,30.06,WSW,248,0.0,0.0,52,0.00,,,0.00,WSDL version 427,2013-06-09 02:44:00,
2013-06-08 21:49:00,71.3,53.1,30.06,WSW,248,0.0,0.0,53,0.00,,,0.00,WSDL version 427,2013-06-09 02:49:00,
2013-06-08 21:54:00,71.3,53.2,30.06,South,180,0.0,0.0,53,0.00,,,0.00,WSDL version 427,2013-06-09 02:54:00,
2013-06-08 21:59:00,71.9,53.5,30.06,SSE,164,0.4,2.7,52,0.00,,,0.00,WSDL version 427,2013-06-09 02:59:00,
2013-06-08 22:04:00,71.4,52.9,30.06,SSE,158,0.0,2.7,52,0.00,,,0.00,WSDL version 427,2013-06-09 03:04:00,
2013-06-08 22:09:00,70.9,52.7,30.06,SSE,158,0.0,2.0,53,0.00,,,0.00,WSDL version 427,2013-06-09 03:09:00,
2013-06-08 22:14:00,70.5,52.6,30.06,SSE,158,0.1,2.0,53,0.00,,,0.00,WSDL version 427,2013-06-09 03:14:00,
2013-06-08 22:19:00,70.2,52.5,30.06,SSE,158,0.6,2.9,54,0.00,,,0.00,WSDL version 427,2013-06-09 03:19:00,
2013-06-08 22:24:00,69.9,52.6,30.06,SSE,158,1.5,3.1,55,0.00,,,0.00,WSDL version 427,2013-06-09 03:24:00,
2013-06-08 22:29:00,70.8,54.5,30.06,SSE,158,0.7,3.1,55,0.00,,,0.00,WSDL version 427,2013-06-09 03:29:00,
2013-06-08 22:34:00,70.8,53.5,30.06,SE,146,1.6,2.7,54,0.00,,,0.00,WSDL version 427,2013-06-09 03:34:00,
2013-06-08 22:39:00,70.3,52.9,30.06,ESE,113,0.5,2.7,54,0.00,,,0.00,WSDL version 427,2013-06-09 03:39:00,
2013-06-08 22:44:00,69.8,52.5,30.06,SE,128,0.0,2.5,55,0.00,,,0.00,WSDL version 427,2013-06-09 03:44:00,
2013-06-08 22:49:00,69.5,52.6,30.06,South,180,0.0,2.5,55,0.00,,,0.00,WSDL version 427,2013-06-09 03:49:00,
2013-06-08 22:54:00,69.8,53.7,30.06,SSE,158,0.0,2.5,57,0.00,,,0.00,WSDL version 427,2013-06-09 03:54:00,
2013-06-08 22:59:00,70.6,53.8,30.06,ENE,68,0.0,0.9,55,0.00,,,0.00,WSDL version 427,2013-06-09 03:59:00,
2013-06-08 23:04:00,70.1,52.8,30.06,ESE,108,0.5,2.2,54,0.00,,,0.00,WSDL version 427,2013-06-09 04:04:00,
2013-06-08 23:09:00,69.5,52.6,30.06,SW,225,0.0,2.2,55,0.00,,,0.00,WSDL version 427,2013-06-09 04:09:00,
2013-06-08 23:14:00,69.1,52.3,30.06,SW,236,0.0,1.3,55,0.00,,,0.00,WSDL version 427,2013-06-09 04:14:00,
2013-06-08 23:19:00,69.4,53.4,30.06,South,191,1.1,3.4,57,0.00,,,0.00,WSDL version 427,2013-06-09 04:19:00,
2013-06-08 23:24:00,69.9,53.7,30.06,ESE,115,1.4,4.3,56,0.00,,,0.00,WSDL version 427,2013-06-09 04:24:00,
2013-06-08 23:29:00,69.4,53.0,30.06,SE,131,1.0,4.3,56,0.00,,,0.00,WSDL version 427,2013-06-09 04:29:00,
2013-06-08 23:34:00,68.9,52.6,30.06,SE,124,0.4,3.6,56,0.00,,,0.00,WSDL version 427,2013-06-09 04:34:00,
2013-06-08 23:39:00,68.6,52.7,30.06,East,90,0.0,2.9,57,0.00,,,0.00,WSDL version 427,2013-06-09 04:39:00,
2013-06-08 23:44:00,68.8,53.5,30.06,SW,227,0.5,2.9,59,0.00,,,0.00,WSDL version 427,2013-06-09 04:44:00,
2013-06-08 23:49:00,69.4,54.2,30.06,SSW,205,0.0,2.5,58,0.00,,,0.00,WSDL version 427,2013-06-09 04:49:00,
2013-06-08 23:54:00,69.0,53.6,30.06,ENE,68,0.0,2.2,58,0.00,,,0.00,WSDL version 427,2013-06-09 04:54:00,
2013-06-08 23:59:00,68.5,53.1,30.06,ENE,68,0.0,2.2,58,0.00,,,0.00,WSDL version 427,2013-06-09 04:59:00,